Wind_Speed
25 26 27 28 29 27 27 26 24 23 22 22 20 18 19 21 23 25 27 26 26 25 24 24 24 24 23 22 21 20 19 21 22 22 23 24 25 25 25 25 26 26 26 26
24 25 25 27 28 28 27 27 24 23 23 22 20 18 19 22 23 24 26 26 26 25 25 25 25 25 24 24 23 22 22 23 24 26 28 28 29 29 30 30 30 30 31 31
22 24 26 26 27 28 28 27 24 23 23 23 21 20 21 23 24 25 27 27 27 27 27 27 26 25 26 26 25 25 24 26 29 30 31 32 33 33 33 34 34 34 34 34
20 23 25 26 27 28 28 27 25 24 24 24 24 24 24 25 26 27 28 28 28 29 29 29 29 28 28 29 29 29 30 31 33 34 34 35 36 36 36 37 37 36 34 34
18 21 23 24 24 27 27 27 27 27 27 28 27 27 26 28 30 30 30 30 30 30 30 30 31 32 31 32 33 33 34 35 36 36 37 38 40 40 39 39 39 38 38 38
16 19 21 21 22 24 25 27 29 30 30 29 27 28 28 29 31 32 33 32 32 32 31 32 33 34 35 35 35 36 36 37 38 39 39 40 41 42 41 41 41 41 40 40
16 17 19 20 22 23 23 25 27 29 30 30 27 28 29 28 31 34 34 34 34 34 34 34 35 36 36 36 37 37 38 38 39 40 41 41 42 42 42 43 43 41 40 40
14 14 15 18 20 21 22 23 24 26 28 28 28 31 32 29 30 33 34 35 36 36 37 37 37 37 38 39 39 39 39 40 41 42 42 42 41 41 42 42 42 41 41 41
12 13 15 17 19 20 21 22 22 24 26 27 28 31 32 31 31 32 34 35 37 37 37 38 38 39 40 41 42 42 42 42 42 42 42 42 42 42 42 42 43 42 43 44
8 11 14 17 19 20 21 22 22 24 25 26 27 29 31 29 30 31 33 35 35 37 39 38 38 40 42 42 43 43 42 42 42 42 42 42 42 42 42 42 43 44 45 46
8 10 12 15 18 20 21 23 25 26 26 27 28 30 31 30 29 30 31 32 34 36 37 39 40 41 41 42 43 43 43 42 42 42 42 41 42 42 43 44 45 47 48 49
8 9 10 14 17 19 22 23 24 26 27 28 29 33 32 33 31 31 31 31 32 33 35 37 38 40 42 42 42 42 42 41 41 41 41 42 43 43 44 45 47 48 49 51
8 9 11 14 16 18 21 23 25 26 28 30 31 34 34 34 34 33 33 33 34 35 36 37 38 38 39 40 40 40 40 41 41 41 41 42 43 45 46 48 50 51 53 55
10 11 11 13 15 18 20 22 23 25 28 30 31 34 34 35 35 35 35 34 34 34 34 34 34 35 36 37 37 38 39 39 40 41 42 43 45 46 48 50 52 53 54 56
10 11 12 14 16 18 20 22 22 23 25 28 30 32 34 34 34 34 34 34 34 32 32 31 31 31 33 34 35 36 37 39 39 40 41 43 45 47 49 51 52 53 54 55
9 10 11 13 16 18 19 20 21 23 25 26 28 30 31 32 33 32 31 30 30 29 28 28 29 29 31 32 32 34 35 36 38 39 41 43 44 46 47 48 49 50 50 52
8 9 10 12 13 16 16 18 20 22 22 24 25 27 28 30 31 31 30 28 28 28 26 25 25 25 27 29 30 32 34 36 37 38 39 40 41 43 45 46 47 48 49 50
9 9 10 12 13 15 16 16 16 17 19 21 23 24 25 26 27 27 27 27 26 26 25 25 26 27 27 28 29 31 32 33 35 36 38 39 40 42 43 44 46 47 48 49
10 10 10 11 12 14 15 15 15 17 18 19 20 22 24 24 23 23 23 23 23 24 24 25 25 25 26 27 29 30 32 33 35 36 37 39 40 41 42 43 45 46 47 48
11 12 12 12 13 14 14 15 16 18 19 20 20 21 22 21 20 21 20 21 21 22 23 23 24 24 25 26 27 29 31 32 34 35 36 37 38 40 41 42 43 44 44 44
12 12 12 12 13 14 14 15 16 16 18 18 19 19 19 19 19 19 19 19 20 21 21 22 23 23 24 25 26 28 29 30 31 32 34 35 36 37 38 39 39 39 40 40
14 14 14 14 13 13 14 13 14 15 15 16 16 16 17 18 18 18 18 18 19 19 20 21 21 22 23 24 24 25 26 27 28 29 30 31 32 33 34 34 34 34 34 33
14 14 14 14 13 13 12 12 12 13 14 14 14 15 15 15 16 16 16 17 18 18 18 19 20 21 21 22 22 23 24 25 26 27 28 29 30 30 30 30 29 28 28 29
15 15 15 14 14 13 12 12 12 12 13 13 14 14 14 14 14 14 14 15 15 16 17 17 18 18 19 19 20 21 22 24 25 25 25 26 26 26 26 26 25 25 25 24
16 15 15 15 15 13 12 12 12 12 12 13 13 13 13 12 12 12 13 13 14 14 15 15 15 16 17 18 19 20 21 21 21 21 21 22 23 23 23 23 22 22 21 20
16 16 16 15 15 14 13 13 13 12 12 12 13 12 12 11 11 11 12 12 12 12 13 13 14 15 15 16 17 17 18 18 18 19 20 20 20 20 20 20 19 18 17 16
Wind_Direction
221 223 224 225 224 223 223 220 216 214 216 222 220 215 215 215 218 221 226 230 236 243 247 247 250 252 253 258 262 265 270 270 274 278 280 284 286 284 282 284 287 288 288 288
222 223 222 223 223 222 219 216 213 212 216 223 218 213 212 214 216 220 228 233 238 242 246 249 253 255 256 258 264 268 270 272 275 277 280 283 285 284 283 284 286 287 286 287
222 220 220 220 220 219 217 214 210 208 214 220 218 213 215 220 222 224 229 235 242 246 250 254 256 260 262 264 268 270 271 273 276 277 279 279 281 281 281 282 283 285 286 286
217 216 218 219 220 218 216 213 211 210 214 217 221 219 218 224 228 230 233 238 243 248 253 257 259 261 264 266 267 269 273 274 276 277 278 280 282 281 281 281 282 284 286 286
214 211 213 217 218 218 215 214 214 215 217 219 223 227 223 226 230 233 236 239 243 247 252 257 261 263 265 266 268 270 273 274 276 278 278 278 280 280 280 281 282 282 283 285
208 209 210 211 214 217 215 215 216 218 220 220 222 229 226 228 231 234 237 240 243 246 250 255 259 263 265 267 269 271 273 274 275 276 277 278 279 280 280 279 279 280 281 282
202 206 209 210 213 216 217 220 220 220 222 220 220 229 232 231 234 237 238 240 243 247 252 255 258 261 264 266 268 269 271 274 276 275 276 277 277 277 276 277 277 279 280 282
198 202 210 214 219 219 219 224 227 226 226 225 223 230 235 235 237 239 240 241 242 245 250 254 257 260 262 265 267 269 272 275 275 276 276 276 275 275 276 277 278 279 281 283
204 201 211 217 220 223 221 224 228 231 228 230 229 233 237 237 239 240 242 243 244 246 249 252 254 257 261 265 267 270 272 274 275 275 275 275 275 276 276 277 279 280 281 281
217 213 215 218 221 223 225 228 230 230 230 231 231 234 239 239 241 244 247 247 248 248 250 252 256 256 261 264 266 269 271 272 273 273 273 273 274 275 276 276 278 279 279 282
233 231 223 222 223 225 226 227 229 231 233 235 235 237 240 244 247 246 248 251 252 252 253 254 257 258 260 263 265 267 268 270 270 271 271 272 273 275 276 277 278 279 281 281
242 238 230 227 225 226 229 230 231 234 236 238 240 242 241 247 251 254 255 258 259 257 259 260 261 259 260 262 265 266 267 269 269 270 270 272 274 275 277 278 279 281 282 283
253 248 240 234 233 231 233 235 237 238 239 240 243 246 245 249 255 261 265 268 268 266 266 264 262 262 264 263 263 265 266 267 267 269 270 272 273 275 277 279 281 282 283 284
262 256 251 245 243 239 239 243 244 247 247 245 246 249 250 253 258 264 269 273 272 272 273 269 264 263 264 263 262 264 266 266 268 269 270 271 274 277 279 280 282 283 283 284
271 264 258 256 257 253 252 251 253 253 250 249 250 253 254 256 261 266 270 273 276 276 275 271 269 270 270 268 265 266 268 268 269 270 272 274 276 278 280 281 282 282 283 283
283 274 268 263 263 261 260 258 260 261 257 253 252 255 257 261 265 269 273 274 277 278 276 271 271 273 270 268 270 272 272 271 273 276 277 277 278 279 281 282 284 285 286 286
297 287 280 276 277 270 272 267 262 263 259 257 258 258 261 263 266 271 275 276 280 280 278 277 277 280 277 274 274 274 275 276 277 279 279 281 283 284 285 286 288 288 288 289
314 306 299 291 285 281 285 281 274 276 270 265 264 266 265 265 267 270 274 278 280 280 280 282 285 287 285 283 281 280 280 280 281 283 285 288 288 289 289 289 289 290 290 290
328 320 309 301 297 292 291 287 283 281 280 279 276 276 276 275 276 276 278 280 283 285 287 287 286 287 286 285 283 283 283 285 286 287 288 288 290 290 291 291 292 293 293 293
335 328 320 311 304 300 297 295 292 288 287 288 286 285 285 286 283 286 287 287 287 288 287 286 287 287 287 288 287 287 287 288 289 291 291 292 293 293 293 294 295 295 295 295
337 333 328 320 311 305 302 300 298 295 296 293 291 291 291 291 290 290 289 289 288 287 286 285 287 289 289 289 290 290 291 292 293 294 295 295 296 297 298 299 299 299 298 298
341 338 336 331 322 316 312 307 304 302 300 299 297 295 295 295 295 294 294 291 288 287 287 288 289 291 290 290 291 292 295 297 297 298 299 300 302 303 303 303 303 303 303 303
344 340 338 335 331 323 320 313 308 306 304 304 301 300 300 299 296 293 291 290 290 290 290 290 291 291 292 294 295 297 298 300 301 303 304 305 306 307 308 308 309 308 309 309
345 342 342 341 339 333 327 322 317 312 310 309 307 304 303 301 297 294 293 292 293 292 292 293 294 296 298 299 299 300 301 303 305 307 309 311 313 314 315 315 315 315 316 317
343 342 341 340 337 333 329 326 323 320 318 316 314 310 306 303 299 298 299 299 299 298 298 298 299 301 302 302 303 304 307 309 310 312 315 318 320 321 321 321 321 322 323 326
342 340 339 339 337 336 335 332 329 327 325 321 320 315 310 307 306 305 306 306 303 303 305 306 306 306 307 308 309 311 313 314 315 316 319 322 325 326 328 329 331 331 333 336
Height
5803 5808 5812 5816 5820 5824 5828 5831 5834 5837 5838 5840 5843 5846 5848 5850 5852 5854 5856 5859 5860 5862 5864 5866 5868 5869 5870 5871 5872 5873 5873 5874 5874 5873 5872 5871 5871 5870 5869 5868 5866 5865 5863 5861
5799 5803 5807 5810 5813 5818 5822 5826 5829 5832 5833 5836 5839 5842 5844 5846 5848 5850 5852 5854 5856 5857 5859 5861 5863 5863 5864 5865 5866 5868 5868 5868 5867 5867 5866 5865 5864 5863 5862 5861 5859 5857 5855 5854
5794 5798 5801 5804 5808 5812 5817 5821 5824 5826 5828 5831 5834 5838 5840 5842 5843 5845 5846 5849 5851 5852 5854 5855 5856 5858 5859 5859 5861 5862 5861 5861 5861 5861 5859 5858 5856 5855 5854 5852 5851 5849 5847 5846
5789 5792 5795 5799 5803 5807 5812 5815 5818 5820 5823 5826 5830 5832 5836 5837 5839 5840 5841 5843 5845 5847 5849 5850 5852 5853 5854 5854 5854 5855 5855 5856 5855 5854 5853 5851 5849 5847 5846 5844 5842 5840 5839 5838
5785 5788 5791 5795 5799 5802 5806 5809 5812 5815 5818 5821 5824 5827 5831 5832 5832 5835 5836 5838 5840 5841 5843 5844 5845 5847 5848 5848 5848 5848 5848 5848 5848 5846 5844 5843 5841 5839 5838 5836 5835 5833 5831 5829
5781 5784 5787 5791 5794 5797 5800 5803 5807 5810 5813 5817 5819 5821 5825 5825 5826 5829 5830 5832 5834 5835 5837 5838 5838 5839 5840 5840 5840 5840 5840 5841 5840 5838 5836 5835 5833 5831 5829 5828 5826 5825 5822 5821
5778 5781 5784 5787 5790 5793 5796 5799 5802 5805 5808 5812 5814 5815 5818 5819 5820 5822 5824 5826 5827 5828 5830 5831 5831 5832 5832 5832 5832 5832 5832 5832 5831 5829 5828 5826 5825 5823 5821 5819 5816 5815 5814 5812
5776 5780 5782 5783 5786 5788 5791 5794 5798 5801 5803 5807 5809 5809 5811 5813 5814 5816 5817 5819 5820 5820 5822 5823 5824 5824 5824 5824 5824 5823 5823 5823 5822 5821 5820 5818 5816 5815 5813 5811 5807 5805 5804 5803
5774 5777 5779 5781 5783 5785 5787 5789 5792 5795 5797 5800 5802 5803 5804 5806 5807 5808 5809 5810 5811 5813 5813 5814 5815 5816 5816 5816 5816 5816 5815 5814 5813 5813 5811 5810 5807 5806 5805 5803 5800 5797 5795 5794
5772 5774 5776 5778 5780 5781 5783 5785 5787 5789 5791 5793 5796 5797 5798 5800 5801 5801 5801 5802 5802 5803 5805 5805 5805 5806 5807 5807 5807 5806 5806 5805 5804 5803 5802 5800 5799 5797 5796 5794 5791 5789 5786 5783
5770 5772 5773 5774 5775 5777 5779 5780 5781 5784 5786 5788 5789 5793 5792 5793 5794 5794 5793 5793 5794 5795 5796 5796 5796 5796 5796 5797 5797 5797 5796 5795 5795 5794 5792 5791 5789 5788 5786 5784 5782 5779 5776 5773
5767 5769 5769 5771 5771 5772 5773 5775 5777 5779 5780 5781 5783 5786 5785 5785 5786 5786 5785 5785 5785 5786 5786 5786 5787 5787 5787 5788 5788 5787 5787 5786 5785 5784 5783 5781 5779 5778 5776 5773 5771 5768 5765 5762
5765 5766 5767 5767 5769 5769 5769 5770 5771 5772 5774 5775 5777 5779 5778 5778 5779 5779 5778 5777 5777 5777 5777 5777 5778 5778 5778 5778 5778 5777 5777 5776 5775 5774 5773 5771 5769 5768 5765 5763 5760 5757 5754 5750
5763 5763 5764 5765 5764 5763 5764 5765 5766 5767 5768 5769 5770 5770 5771 5771 5772 5771 5771 5770 5769 5769 5769 5768 5768 5768 5768 5768 5768 5768 5767 5767 5766 5764 5763 5761 5759 5757 5754 5752 5749 5745 5742 5738
5760 5760 5760 5760 5759 5759 5759 5760 5761 5761 5762 5763 5764 5764 5764 5764 5764 5764 5764 5763 5763 5762 5761 5761 5760 5759 5759 5758 5758 5758 5758 5757 5756 5754 5753 5750 5748 5745 5743 5740 5736 5733 5729 5725
5757 5757 5756 5756 5755 5754 5754 5755 5756 5756 5756 5756 5757 5757 5757 5756 5756 5756 5756 5755 5755 5755 5754 5752 5751 5750 5750 5750 5750 5749 5749 5747 5746 5744 5742 5740 5737 5734 5731 5728 5724 5720 5716 5711
5755 5754 5753 5752 5751 5750 5750 5750 5750 5750 5749 5750 5750 5751 5750 5750 5749 5749 5749 5748 5747 5746 5745 5745 5744 5743 5743 5742 5741 5740 5739 5738 5736 5734 5731 5729 5726 5723 5719 5716 5712 5707 5703 5698
5752 5751 5750 5749 5748 5747 5748 5745 5745 5745 5744 5744 5744 5744 5744 5743 5742 5742 5742 5741 5740 5739 5738 5737 5737 5736 5735 5734 5733 5732 5730 5728 5726 5723 5721 5718 5715 5712 5708 5704 5699 5695 5690 5685
5750 5748 5747 5745 5744 5743 5742 5741 5740 5740 5739 5738 5738 5738 5737 5736 5735 5734 5734 5733 5733 5732 5731 5730 5729 5728 5727 5726 5724 5723 5721 5719 5716 5713 5710 5707 5704 5700 5696 5691 5687 5682 5677 5672
5747 5746 5744 5742 5741 5740 5740 5737 5736 5736 5734 5733 5733 5732 5731 5730 5730 5729 5727 5726 5726 5725 5724 5723 5722 5721 5719 5718 5716 5714 5712 5709 5706 5703 5700 5697 5693 5689 5684 5679 5674 5669 5664 5658
5746 5743 5741 5739 5737 5736 5735 5733 5732 5732 5731 5728 5727 5726 5725 5725 5724 5723 5721 5720 5719 5718 5717 5716 5715 5713 5712 5710 5708 5706 5704 5701 5698 5695 5691 5687 5683 5678 5673 5668 5663 5657 5652 5647
5743 5741 5738 5736 5734 5734 5730 5729 5728 5727 5725 5723 5722 5721 5720 5719 5718 5717 5715 5714 5713 5712 5711 5710 5708 5707 5705 5703 5701 5699 5696 5693 5690 5686 5682 5678 5674 5669 5664 5659 5653 5648 5642 5637
5741 5739 5736 5735 5733 5729 5727 5725 5724 5722 5721 5719 5718 5716 5715 5714 5713 5712 5711 5709 5708 5707 5705 5704 5702 5700 5698 5696 5694 5692 5689 5686 5682 5678 5674 5670 5665 5660 5655 5650 5645 5640 5635 5629
5740 5737 5734 5731 5729 5726 5724 5722 5720 5719 5717 5715 5714 5712 5711 5709 5708 5707 5706 5705 5703 5702 5700 5698 5696 5695 5693 5690 5688 5685 5682 5679 5675 5671 5667 5663 5658 5653 5648 5643 5638 5633 5628 5623
5737 5734 5732 5729 5726 5724 5722 5720 5717 5716 5713 5711 5710 5708 5706 5705 5704 5703 5702 5700 5699 5697 5695 5693 5691 5690 5687 5685 5682 5680 5676 5673 5669 5666 5662 5657 5652 5648 5643 5638 5633 5629 5624 5619
5735 5732 5730 5727 5724 5722 5720 5717 5714 5712 5710 5708 5706 5704 5703 5701 5700 5699 5698 5696 5695 5693 5691 5689 5687 5685 5683 5680 5677 5674 5671 5668 5664 5661 5657 5652 5648 5643 5639 5634 5630 5625 5621 5617